Theta_e
316 315 314 313 312 310 309 309 309 310 311 316 315 319 318 316 315 315 315 314 313 311 310 310 307 302 294 293 292 292 291 294 293 290 288 287 287 286 286 286 286 286 286
316 316 315 313 312 311 310 309 308 309 311 311 317 315 317 317 315 314 315 315 312 308 305 307 304 295 293 292 292 291 295 293 291 291 288 287 287 287 286 286 286 286 286
315 316 316 316 313 312 310 309 308 309 311 312 315 314 316 316 315 314 314 314 312 304 304 303 298 293 293 292 291 294 293 292 291 290 288 287 287 287 287 286 286 286 286
315 315 315 316 314 311 310 309 308 308 310 310 311 314 315 316 314 314 313 312 308 300 299 296 293 293 292 291 291 296 295 291 290 290 288 288 287 287 287 286 286 286 286
314 314 315 314 313 311 309 309 308 308 310 310 311 314 315 315 314 313 312 309 305 296 293 292 292 291 290 290 295 297 294 293 289 289 288 287 287 287 287 286 285 285 285
313 313 313 313 312 311 309 308 308 308 309 309 309 313 314 314 312 312 310 305 300 293 291 291 291 289 289 291 295 296 296 290 288 288 287 288 287 286 286 285 285 284 284
312 312 312 311 309 309 307 307 307 307 308 308 309 311 312 312 310 309 308 303 293 290 290 291 290 289 289 291 295 296 295 289 288 286 287 287 286 285 284 284 284 283 283
311 311 310 309 308 306 305 305 305 305 306 307 309 310 310 310 308 306 305 299 293 289 289 290 289 289 289 291 294 295 293 289 286 286 287 287 286 285 284 284 283 282 282
311 310 309 307 306 305 304 304 303 304 304 305 307 307 307 306 303 301 300 293 290 289 289 288 288 288 289 291 292 294 292 289 286 287 287 286 285 284 283 282 283 282 282
310 308 307 306 304 303 301 301 301 301 301 302 303 304 302 301 297 295 295 290 288 288 289 289 288 288 289 290 292 292 291 291 289 287 286 285 284 284 283 283 282 282 281
307 306 305 304 302 301 300 298 298 299 298 300 301 300 298 297 295 294 293 291 289 290 289 288 288 288 288 290 291 291 290 290 289 287 285 284 284 284 283 283 281 280 279
304 303 301 300 299 298 297 296 296 297 297 297 297 297 296 295 294 291 289 288 289 289 288 287 287 288 288 289 291 290 289 288 287 284 284 284 283 283 282 281 280 279 278
300 299 298 297 296 295 294 294 295 295 295 295 295 295 294 293 291 289 287 288 289 288 287 287 287 287 288 288 289 289 288 286 284 284 283 282 282 282 281 280 279 279 278
297 296 295 295 294 294 294 294 293 294 294 293 293 293 292 291 290 289 288 288 288 288 287 287 287 287 288 288 288 288 286 284 284 283 283 282 282 281 280 279 278 276 274
298 297 296 294 294 293 292 292 292 292 292 293 293 292 293 292 292 291 290 290 290 289 287 287 288 288 288 287 286 286 285 284 283 282 282 281 280 279 278 277 274 272 271
297 297 296 296 296 295 294 293 293 292 292 293 292 292 292 291 291 291 290 290 289 288 288 288 287 287 286 286 285 284 283 282 282 281 280 279 279 278 275 274 272 271 270
298 298 297 296 296 296 295 294 294 293 292 292 292 292 291 290 291 291 291 290 289 288 288 288 287 286 285 283 283 282 282 282 281 280 279 278 277 274 273 273 271 270 270
293 292 292 292 292 292 292 292 291 291 291 290 290 290 290 290 290 289 288 288 287 286 286 286 285 284 283 283 282 281 281 280 279 278 278 275 274 273 272 271 270 269 269
290 290 290 290 290 290 289 289 289 289 289 289 288 288 288 288 287 287 286 286 285 285 284 283 283 282 282 281 281 280 279 278 278 276 274 273 272 271 271 270 270 269 268
289 289 289 289 289 289 288 288 288 288 287 287 287 287 286 286 285 285 284 284 283 283 282 282 281 281 280 279 279 278 277 275 274 273 272 272 271 270 270 269 269 268 267
288 288 288 288 288 288 287 287 287 287 286 286 286 285 285 284 284 283 283 282 282 282 281 281 280 279 279 278 276 274 274 273 273 272 271 270 270 269 269 269 268 267 267
288 288 287 287 287 287 286 286 286 285 285 285 284 284 283 282 282 281 281 281 280 280 279 278 278 277 275 274 274 273 272 272 271 271 270 269 269 269 268 268 267 267 267
287 286 286 286 285 285 285 285 284 284 283 282 282 281 281 281 280 280 279 278 278 277 276 275 274 273 273 273 272 271 271 270 270 269 269 269 268 268 268 267 267 267 266
285 284 284 284 284 284 283 283 282 281 281 280 280 279 279 278 277 276 275 274 273 273 273 273 272 272 272 271 271 270 269 269 268 268 268 267 267 267 266 266 266 266 266
283 283 283 283 282 282 281 280 279 278 277 276 276 275 275 274 273 273 273 272 272 272 272 271 271 271 270 270 269 269 269 269 269 268 268 267 267 266 265 265 265 265 265
281 281 280 280 279 279 278 277 277 276 276 275 275 274 274 273 273 272 272 271 271 270 270 270 269 269 269 269 269 268 268 268 268 268 267 267 267 267 266 266 265 265 265
Wind_Speed
13 14 17 20 25 30 36 40 38 37 40 40 37 38 38 39 37 37 40 43 42 41 42 41 39 36 33 29 25 21 17 11 10 12 14 15 15 16 18 18 20 21 23
16 16 17 19 22 27 31 36 37 38 39 37 37 37 39 41 39 37 40 43 43 41 43 42 39 36 33 29 24 20 14 10 10 11 17 17 16 18 19 21 23 24 26
23 21 18 21 24 26 29 33 36 37 37 36 38 39 41 40 41 40 41 41 42 41 43 43 41 39 35 31 26 21 15 11 10 15 18 18 18 19 21 24 25 27 29
33 28 23 26 28 28 29 32 35 36 35 35 37 39 40 40 40 44 43 43 42 42 43 42 40 39 35 31 27 18 16 13 11 18 19 19 18 20 23 25 27 28 31
31 29 29 31 32 31 30 32 34 34 34 34 34 38 39 38 40 41 43 44 44 42 43 42 38 33 30 28 22 18 15 16 15 20 20 19 22 22 25 27 30 32 34
32 32 33 35 33 32 31 32 33 32 34 34 33 36 38 39 37 39 42 43 42 43 45 40 35 33 32 26 19 17 22 15 19 23 21 23 25 26 28 28 30 32 36
31 32 33 36 34 32 29 29 30 31 32 33 32 35 36 37 38 38 42 41 41 43 41 39 37 35 32 24 15 22 27 20 23 24 24 24 29 29 29 30 33 34 37
29 27 26 28 28 28 28 27 28 29 30 31 33 34 37 36 38 38 40 38 40 38 38 37 36 34 30 22 19 26 27 24 25 25 27 25 31 31 32 32 34 37 38
20 20 20 20 22 23 24 24 25 27 28 28 30 32 33 32 36 37 39 38 36 36 36 31 32 33 31 18 27 30 27 26 26 29 26 30 33 33 32 33 36 34 37
18 17 16 16 16 17 18 19 20 21 22 23 26 28 29 28 30 31 34 27 32 35 34 35 34 33 32 29 32 28 28 29 28 25 29 33 35 34 31 30 30 32 33
14 15 15 14 14 14 14 14 14 16 15 17 19 21 21 21 22 23 23 26 34 36 34 33 32 32 32 35 36 33 28 31 30 27 31 34 34 33 30 27 25 27 28
10 10 9 8 7 8 8 8 9 9 9 11 12 13 15 15 14 17 18 22 27 29 29 30 31 32 35 35 36 31 28 27 27 27 30 31 31 32 31 29 28 28 29
5 5 4 4 5 5 4 3 4 6 6 7 7 7 7 8 11 14 18 20 23 23 24 28 30 31 33 38 35 28 25 23 23 25 29 29 29 31 30 30 31 32 30
7 8 9 10 10 11 11 10 8 7 6 5 5 5 5 7 10 15 19 19 20 23 26 27 29 33 37 32 28 26 22 23 26 26 27 29 29 29 30 30 29 29 29
15 15 14 14 12 12 12 10 8 7 5 5 3 2 1 2 3 8 12 16 19 21 23 27 31 31 29 27 26 25 23 24 24 26 27 27 27 27 26 27 27 27 27
15 15 13 14 15 13 12 11 9 7 5 4 4 2 1 3 5 6 10 14 17 22 26 29 29 28 28 28 27 29 26 24 25 25 24 23 22 23 25 25 25 24 22
11 13 13 11 11 11 11 9 6 5 3 2 2 4 6 6 5 6 7 10 14 19 21 23 25 25 24 25 26 25 26 24 22 21 20 21 22 23 23 23 22 21 20
12 12 11 11 10 9 8 6 5 3 1 2 4 5 7 7 9 10 11 13 14 16 19 19 19 19 20 21 21 22 22 21 20 21 22 23 22 21 20 20 19 18 17
13 11 10 9 8 7 5 4 2 2 1 1 4 6 5 5 6 7 7 9 11 12 14 15 17 17 18 19 19 20 21 21 21 21 22 21 19 17 17 17 17 16 14
12 11 9 7 6 6 5 4 4 4 3 4 6 7 7 8 7 8 9 11 13 14 15 16 17 18 19 20 20 21 21 21 21 21 21 19 17 16 15 16 16 15 14
10 10 9 7 7 6 5 3 2 3 3 5 7 9 10 11 11 12 13 15 16 17 17 18 18 19 19 20 20 20 21 22 21 20 19 18 16 16 15 15 16 15 14
11 9 8 8 7 6 5 4 3 4 5 7 10 14 12 13 14 15 16 16 17 17 18 18 19 19 19 20 20 21 21 20 20 19 19 18 17 17 16 16 15 15 15
11 10 9 7 5 4 3 4 5 7 8 10 13 14 15 15 15 16 17 17 18 18 18 19 20 20 21 21 21 21 20 20 20 20 20 20 19 18 17 17 16 15 15
8 6 3 0 2 4 6 8 9 10 12 14 15 16 17 18 18 19 19 19 19 19 19 20 21 22 22 22 21 20 20 20 21 21 21 21 20 19 18 18 17 16 16
2 1 2 5 7 9 10 11 13 14 15 16 17 19 19 20 20 21 21 22 22 23 22 23 22 22 22 22 22 21 21 22 22 22 22 21 20 20 20 19 18 18 18
2 4 6 8 9 11 13 15 17 18 20 21 22 22 23 24 24 24 25 25 25 24 24 24 23 22 22 22 22 22 22 22 22 22 22 22 21 20 19 19 18 19 18
Wind_Direction
264 265 266 265 260 255 250 246 244 244 243 236 238 236 238 237 242 247 246 237 235 235 233 228 229 231 229 228 222 219 214 229 238 244 261 266 266 274 282 288 294 302 306
269 268 272 269 264 260 254 249 245 244 243 240 233 239 239 236 239 242 243 246 239 236 229 224 226 224 223 221 216 208 219 221 238 263 262 266 271 277 285 291 296 300 301
271 267 272 274 267 264 260 252 246 244 242 239 236 240 240 239 241 241 243 246 244 235 230 227 224 221 220 214 207 211 216 220 236 254 260 265 274 282 289 293 296 299 302
275 262 271 274 270 264 258 255 250 247 245 242 239 241 242 240 243 245 245 242 239 234 230 226 223 222 219 210 207 216 226 226 233 252 258 269 279 288 292 297 298 301 304
270 261 272 272 269 266 260 257 254 249 246 247 241 241 244 242 246 247 247 244 239 231 225 221 218 217 210 209 218 232 230 235 237 254 260 274 283 288 295 298 300 303 303
269 265 266 267 267 266 259 257 256 251 246 247 244 242 244 247 250 251 250 242 237 229 223 215 213 208 207 213 231 257 270 228 244 256 264 278 287 291 293 296 297 301 302
271 267 266 265 267 266 262 259 257 253 248 247 246 246 246 249 251 252 252 242 233 227 221 217 210 207 209 221 258 282 277 228 244 256 267 278 287 290 291 293 296 296 296
271 268 265 262 262 260 260 258 256 253 251 249 246 248 248 249 251 248 249 241 230 226 221 218 215 213 216 232 267 282 263 238 251 263 270 282 284 286 287 291 294 294 295
271 269 266 264 260 257 256 256 255 253 251 249 249 252 254 254 254 251 248 237 226 224 224 220 220 216 221 240 261 276 265 246 253 261 277 283 285 286 289 293 295 298 297
267 267 267 263 258 256 255 253 252 252 251 249 250 252 255 255 256 255 255 238 222 218 220 224 225 228 234 238 263 276 266 263 258 268 276 278 280 282 284 285 288 286 290
264 266 267 266 263 259 256 254 251 249 246 245 247 252 256 260 262 265 262 234 224 219 216 222 226 233 240 248 265 273 270 266 261 268 273 275 280 284 288 290 286 288 288
272 269 266 262 260 257 251 246 242 239 233 237 242 246 253 258 259 245 235 222 219 216 220 225 232 238 245 257 276 271 271 264 265 269 273 279 287 293 295 296 297 295 291
247 238 211 182 160 148 145 166 188 193 202 222 237 242 248 249 240 223 219 226 219 220 225 233 241 245 252 261 267 269 268 261 259 263 270 277 280 283 289 293 294 293 292
145 139 136 133 131 132 133 135 144 153 163 169 188 203 215 217 217 214 217 223 227 227 232 242 248 253 264 266 262 266 260 260 262 265 268 273 278 281 289 292 292 296 298
129 123 119 114 112 112 111 107 94 83 92 91 91 109 128 196 237 240 240 240 240 242 247 255 260 262 264 266 268 266 262 261 261 263 264 269 275 281 282 287 292 296 299
128 122 118 119 116 113 111 113 114 113 113 118 126 141 222 243 239 234 249 256 258 258 257 258 257 260 264 267 266 268 268 266 267 269 269 270 271 278 283 288 292 295 297
133 124 122 117 114 118 123 127 130 140 156 166 229 242 249 260 269 263 251 243 241 245 250 252 255 260 260 255 258 263 268 268 268 267 269 275 280 282 286 289 293 296 300
132 124 121 120 120 120 121 126 129 117 76 18 336 300 289 290 282 274 267 263 250 249 249 256 258 258 260 263 264 262 263 266 266 269 275 276 277 279 282 286 290 295 302
133 134 133 131 126 123 130 141 153 176 230 265 270 285 305 297 295 292 284 272 267 262 264 266 268 268 267 267 265 263 264 265 270 274 273 275 276 278 282 285 288 292 296
150 145 146 149 148 149 159 181 197 212 236 266 274 287 285 288 291 288 282 278 277 278 275 274 271 269 269 268 267 266 269 271 271 272 273 275 277 280 282 283 285 287 290
159 155 154 159 154 147 152 178 218 247 261 267 277 270 270 274 277 276 274 274 276 276 275 274 272 272 271 270 271 270 270 271 270 270 271 273 276 278 277 279 281 284 285
154 151 151 157 149 147 154 185 220 248 258 259 259 258 262 264 264 265 267 269 270 271 271 272 272 272 272 271 271 272 272 270 269 267 268 270 271 272 274 275 277 279 282
152 159 161 160 161 176 211 246 260 266 264 261 261 265 269 268 269 270 272 272 273 273 273 273 275 275 275 275 275 274 273 270 268 268 268 268 268 269 271 273 274 275 278
154 150 140 205 301 299 296 293 291 287 282 279 279 279 280 281 281 281 282 281 279 277 276 276 275 275 275 275 274 272 270 268 268 267 266 267 268 268 268 270 271 273 275
118 48 318 311 307 305 303 299 294 289 287 287 288 289 288 287 286 286 285 284 284 283 281 278 277 275 273 272 270 269 267 266 266 266 266 265 265 266 267 267 269 271 272
342 319 315 310 304 300 299 296 294 293 292 292 292 291 289 289 289 289 288 287 286 284 282 280 277 274 270 269 269 268 266 265 266 266 265 264 263 263 264 266 266 268 269